AST,Max TemperatureF,Mean TemperatureF,Min TemperatureF,Max Dew PointF,MeanDew PointF,Min DewpointF,Max Humidity, Mean Humidity, Min Humidity, Max Sea Level PressureIn, Mean Sea Level PressureIn, Min Sea Level PressureIn, Max VisibilityMiles, Mean VisibilityMiles, Min VisibilityMiles, Max Wind SpeedMPH, Mean Wind SpeedMPH, Max Gust SpeedMPH,PrecipitationIn, CloudCover, Events, WindDirDegrees
2012-9-1,89,84,80,77,75,73,79,71,59,29.98,29.93,29.89,19,8,6,12,9,,0.00,2,,29
2012-9-2,86,82,79,77,77,75,84,78,68,29.98,29.91,29.83,19,8,6,15,8,,0.00,3,Rain,267
2012-9-3,86,84,82,77,76,75,84,77,67,30.04,29.99,29.92,19,8,6,10,7,,0.00,2,,230
2012-9-4,87,84,82,78,76,74,84,78,63,30.03,29.99,29.95,19,8,6,7,3,,0.00,3,Tornado,215
2012-9-5,89,85,81,77,76,75,84,72,56,30.01,29.98,29.95,19,9,6,6,3,,0.00,1,,166
2012-9-6,87,84,82,77,76,75,79,73,63,30.01,29.98,29.95,19,7,6,7,4,,0.00,1,,243
2012-9-7,88,85,82,75,75,73,79,72,58,29.99,29.95,29.92,6,6,6,8,5,,0.00,1,,234
2012-9-8,87,84,81,75,74,72,84,70,53,30.34,30.00,29.92,19,9,6,4,3,,0.00,1,,125
2012-9-9,87,84,80,75,73,70,84,70,47,30.06,30.02,29.98,19,8,6,9,5,,0.00,1,,117
2012-9-10,90,85,80,75,73,70,79,67,49,30.04,30.00,29.95,19,7,6,10,7,,0.04,1,,83
2012-9-11,89,84,78,76,74,71,89,71,46,30.01,29.97,29.92,19,7,6,12,8,,0.16,2,Rain,97
2012-9-12,90,85,80,75,73,71,79,68,47,29.96,29.92,29.89,12,6,6,13,8,,0.00,2,Rain,81
2012-9-13,89,85,81,77,75,72,79,71,53,29.97,29.92,29.89,12,6,0,12,7,,0.01,2,,99
2012-9-14,88,84,80,77,75,72,84,72,53,30.00,29.95,29.92,19,7,6,10,5,,0.01,2,Rain,118
2012-9-15,88,84,80,77,75,73,84,71,56,30.01,29.97,29.92,19,7,0,101,6,,0.00,1,,114
2012-9-16,90,86,82,75,75,73,79,68,52,29.99,29.95,29.92,6,6,6,12,7,,0.00,2,Rain,80
2012-9-17,90,84,79,77,76,73,89,75,54,30.01,29.95,29.92,16,6,3,13,7,,0.43,3,Rain,75
2012-9-18,87,84,81,79,76,73,84,74,65,30.03,29.97,29.92,19,8,5,14,11,,0.02,4,Rain-Thunderstorm,88
2012-9-19,89,84,80,77,76,75,89,75,58,30.01,29.96,29.92,16,7,6,13,7,,0.00,3,Rain,100
2012-9-20,87,84,80,77,76,73,89,77,68,29.97,29.91,29.86,19,7,6,8,4,,0.00,2,Rain,113
2012-9-21,88,84,80,77,75,73,84,71,57,29.98,29.92,29.86,6,6,6,9,5,,0.00,1,,131
2012-9-22,89,86,82,77,76,75,84,72,61,30.04,29.99,29.92,19,8,6,15,10,,0.00,2,Thunderstorm,124
2012-9-23,89,86,82,75,73,68,79,67,52,30.05,30.01,29.95,19,8,6,17,11,,0.00,2,Rain,99
2012-9-24,89,86,82,75,73,72,74,66,49,30.01,29.97,29.92,19,8,6,16,11,,0.00,3,,84
2012-9-25,90,85,80,75,74,72,79,69,49,30.01,29.96,29.92,19,8,6,13,9,,0.04,2,Rain,76
2012-9-26,90,85,80,75,73,70,79,67,43,29.99,29.95,29.92,19,7,6,12,7,,0.00,2,Rain-Thunderstorm,83
2012-9-27,87,82,78,76,74,72,84,75,60,29.98,29.93,29.89,9,6,6,13,5,,0.47,2,Rain,63
2012-9-28,87,84,80,77,75,73,84,72,61,29.99,29.95,29.92,16,7,6,10,6,,0.00,2,,134
2012-9-29,88,85,82,77,75,73,79,72,62,30.02,29.98,29.95,6,6,6,10,7,,0.00,1,,128
2012-9-30,88,84,80,77,75,73,84,74,62,30.04,29.99,29.95,6,6,5,9,7,,0.87,2,Rain,118